[[{"header":{"parameterUnit":"m.s-1","parameterCategory":2,"la1":30.2991,"la2":30.254,"lo1":-89.0895,"lo2":-89.0444,"dy":0.0017,"dx":0.0017,"nx":28,"ny":28,"refTime":"2025-06-23T03:00:00:Z","depth":"0","parameterNumber":2,"parameterNumberName":"U-component_of_CURRENTS"},"data":[0,0,0,0,0,0,0,0,0,0,0,0,0,0,0,0,0,0,0,0,0,0,0,0,0,0,0,0,0,0,0,0,0,0,0,0,0,0,0,0,0,0,0,0,0,0,0,0,0,0,0,0,0,0,0,0,0,0,0.2771,0.2772,0,0.2822,0.2823,0.2824,0.2803,0.2802,0.2801,0.28,0.2927,0.2931,0.2936,0,0,0,0,0,0,0,0,0,0,0,0,0,0.2789,0.2788,0.2771,0.2772,0.2772,0.2822,0.2823,0.2824,0.2804,0.2802,0.2801,0.2799,0.2925,0.2931,0.2936,0,0,0,0,0,0,0,0,0,0,0,0,0,0.2805,0.2788,0.2771,0.2768,0.2768,0.2822,0.2823,0.2824,0.2804,0.2802,0.28,0.2798,0.2924,0.293,0.2937,0.3016,0,0,0.2958,0.2961,0,0,0,0,0,0,0,0,0.2804,0.2804,0.2768,0.2768,0.2769,0.2804,0.2876,0.2892,0.2804,0.2791,0.28,0.2798,0.2894,0.2903,0.2916,0.3022,0.3027,0.2958,0.2963,0.2965,0.2967,0,0,0,0,0,0,0,0.2803,0.2803,0.2792,0.2769,0.2769,0.281,0.2809,0.2879,0.2854,0.2792,0.279,0.2796,0.2895,0.291,0.2919,0.3029,0.2958,0.2964,0.2968,0.2971,0.3203,0.3205,0,0,0,0,0,0,0.2791,0.2801,0.279,0.2793,0.2782,0.281,0.2809,0.2795,0.2851,0.2857,0.2798,0.2795,0.2899,0.2912,0.2924,0.3059,0.2965,0.2972,0.2976,0.3201,0.3203,0.3205,0,0,0,0,0,0,0.279,0.2788,0.2788,0.28,0.2802,0.2811,0.2796,0.2797,0.2807,0.2855,0.2862,0.2805,0.2898,0.2914,0.3008,0.3062,0.2975,0.2981,0.3198,0.3201,0.3204,0.3306,0,0,0,0,0,0,0.279,0.2787,0.2786,0.2798,0.2801,0.2832,0.2798,0.2799,0.2813,0.281,0.2865,0.2874,0.2898,0.2998,0.3015,0.307,0.2986,0.3196,0.32,0.3203,0.33,0.3312,0.3323,0,0,0,0,0,0.2791,0.2796,0.2785,0.2785,0.2793,0.2833,0.284,0.2841,0.2815,0.2839,0.288,0.2872,0.3033,0.3007,0.3025,0.3084,0.3194,0.3198,0.3203,0.3295,0.331,0.3323,0,0,0,0,0,0,0.2811,0.2795,0.2783,0.2784,0.2811,0.283,0.2853,0.2846,0.2894,0.2893,0.292,0.2936,0.3042,0.3044,0.3014,0.3157,0.3104,0.3113,0.3168,0.3182,0.3193,0.3223,0.2992,0,0,0,0,0,0.2813,0.2809,0.2813,0.2822,0.283,0.2841,0.2858,0.286,0.2897,0.2912,0.2956,0.3004,0.3079,0.3112,0.318,0.3265,0.3302,0.3305,0.3317,0.3327,0.3362,0.3495,0.3523,0.3221,0.3221,0.3221,0,0,0.2825,0.2818,0.2816,0.2827,0.2842,0.289,0.2847,0.288,0.2934,0.2927,0.3023,0.3064,0.3115,0.3219,0.3262,0.3224,0.3422,0.3332,0.3341,0.3372,0.3503,0.3533,0.356,0.3224,0.3223,0.3223,0,0,0.2869,0.284,0.2861,0.2885,0.2912,0.2929,0.2937,0.2968,0.2992,0.3083,0.31,0.318,0.3267,0.3333,0.337,0.3484,0.3491,0.3477,0.3555,0.3684,0.3711,0.3735,0.378,0.3808,0.3467,0.3467,0.3468,0,0.2892,0.2907,0.2883,0.2925,0.296,0.2948,0.3008,0.3043,0.3109,0.316,0.3125,0.3306,0.3335,0.349,0.3514,0.3518,0.3559,0.3501,0.3703,0.3728,0.3751,0.3792,0.3822,0.3473,0.3472,0.3472,0.3471,0,0.2955,0.2981,0.3002,0.3045,0.3084,0.3132,0.3171,0.3226,0.3243,0.3284,0.3428,0.3484,0.3584,0.3597,0.359,0.3766,0.3729,0.3717,0.3674,0.3789,0.3822,0.3851,0.3481,0.3479,0.3477,0.3476,0,0,0.2994,0.3035,0.305,0.309,0.3149,0.319,0.3291,0.3387,0.3462,0.3529,0.3652,0.3764,0.3774,0.3817,0.3827,0.3921,0.4088,0.388,0.3885,0.3935,0.4328,0.4124,0.4135,0.4118,0.4125,0.413,0.4271,0,0.3065,0.3145,0.3161,0.3274,0.3323,0.3359,0.3456,0.3541,0.3604,0.372,0.3792,0.3907,0.3861,0.3908,0.4007,0.4086,0.4176,0.4048,0.4202,0.4205,0.4022,0.4167,0.3897,0.3986,0.4299,0.4303,0.4307,0,0.3139,0.3182,0.3278,0.338,0.3408,0.3477,0.3621,0.3706,0.3851,0.3901,0.4023,0.4066,0.4224,0.4152,0.4372,0.4292,0.4326,0.4366,0.4372,0.4178,0.4059,0.393,0.4027,0.389,0.4351,0.4347,0.4344,0,0.3178,0.328,0.3352,0.3385,0.3492,0.3559,0.363,0.3765,0.3856,0.402,0.4099,0.4272,0.4362,0.448,0.4521,0.4476,0.4735,0.4678,0.4533,0.4515,0.4314,0.4267,0.4309,0.4858,0.4858,0.4858,0.4857,0,0.3249,0.3315,0.3367,0.3411,0.3527,0.3588,0.3733,0.3821,0.3968,0.4096,0.4186,0.431,0.4457,0.4586,0.4616,0.4654,0.4817,0.4591,0.4571,0.4329,0.4284,0.4174,0.4143,0.4863,0.4862,0.4861,0.486,0,0.3283,0.3314,0.34,0.35,0.3541,0.3619,0.3771,0.3886,0.3996,0.417,0.4227,0.4397,0.4531,0.4629,0.481,0.4748,0.4657,0.4783,0.4436,0.4371,0.403,0.4014,0.3941,0.3838,0.4649,0.4645,0.4642,0,0.3303,0.3343,0.3444,0.3505,0.355,0.3667,0.3773,0.3897,0.4016,0.421,0.4309,0.4458,0.4538,0.4678,0.4612,0.4624,0.4537,0.4369,0.4231,0.401,0.3984,0.3857,0.3769,0.3998,0.399,0.3983,0.3978,0,0.3347,0.3368,0.3433,0.3547,0.3648,0.3761,0.3902,0.3981,0.4138,0.4233,0.4347,0.4402,0.4455,0.4321,0.4296,0.4261,0.4099,0.4225,0.4142,0.3607,0.3338,0.3225,0.3861,0.3919,0.3925,0.3929,0.3932,0.3935,0.3375,0.3415,0.3494,0.359,0.3709,0.3819,0.386,0.3985,0.4085,0.4125,0.4262,0.4188,0.4077,0.3956,0.3912,0.3565,0.3671,0.3399,0.3439,0.336,0.3137,0.3585,0.352,0.3523,0.3526,0.3529,0.3531,0,0.3408,0.3446,0.3543,0.3635,0.372,0.3793,0.3925,0.3902,0.3915,0.3935,0.392,0.3663,0.3473,0.3339,0.3006,0.2823,0.2719,0.2732,0.254,0.2529,0.3053,0.2894,0.2511,0.2512,0.2512,0.2512,0.2512,0.2512,0.3436,0.3491,0.3511,0.3599,0.3663,0.3695,0.3718,0.3659,0.3625,0.3376,0.3141,0.3058,0.2931,0.2681,0.2374,0.2294,0.2162,0.1985,0.2112,0.25,0.2566,0.2629,0.2472,0.2007,0.2006,0.1406,0.1402,0.1399]},{"header":{"parameterUnit":"m.s-1","parameterCategory":2,"la1":30.2991,"la2":30.254,"lo1":-89.0895,"lo2":-89.0444,"dy":0.0017,"dx":0.0017,"nx":28,"ny":28,"refTime":"2025-06-23T03:00:00:Z","depth":"0","parameterNumber":3,"parameterNumberName":"V-component_of_CURRENTS"},"data":[0,0,0,0,0,0,0,0,0,0,0,0,0,0,0,0,0,0,0,0,0,0,0,0,0,0,0,0,0,0,0,0,0,0,0,0,0,0,0,0,0,0,0,0,0,0,0,0,0,0,0,0,0,0,0,0,0,0,0.0183,0.0183,0,0.0169,0.0169,0.0169,0.0151,0.0151,0.015,0.015,0.0159,0.016,0.0161,0,0,0,0,0,0,0,0,0,0,0,0,0,0.0186,0.0186,0.0183,0.0183,0.0183,0.0169,0.0169,0.0169,0.0151,0.0151,0.015,0.015,0.0159,0.016,0.0161,0,0,0,0,0,0,0,0,0,0,0,0,0,0.018,0.0186,0.0183,0.0172,0.017,0.0169,0.0169,0.0169,0.0151,0.0151,0.015,0.015,0.0159,0.016,0.0161,0.0176,0,0,0.0163,0.0164,0,0,0,0,0,0,0,0,0.018,0.018,0.0174,0.0172,0.0171,0.0161,0.0173,0.0172,0.0151,0.0159,0.015,0.0149,0.0162,0.0162,0.0162,0.0177,0.0177,0.0163,0.0164,0.0164,0.0164,0,0,0,0,0,0,0,0.0181,0.018,0.0178,0.0173,0.0172,0.0164,0.0163,0.0173,0.0165,0.0158,0.0157,0.0154,0.0161,0.0161,0.0162,0.0177,0.0163,0.0164,0.0165,0.0165,0.0217,0.0217,0,0,0,0,0,0,0.0182,0.0181,0.0179,0.0178,0.0174,0.0164,0.0163,0.0165,0.0164,0.0163,0.0155,0.0154,0.016,0.0161,0.0162,0.0209,0.0164,0.0165,0.0165,0.0216,0.0217,0.0218,0,0,0,0,0,0,0.0182,0.0182,0.0179,0.0178,0.0177,0.0165,0.0167,0.0165,0.0165,0.0161,0.016,0.0157,0.0159,0.0161,0.0181,0.0208,0.0165,0.0166,0.0215,0.0216,0.0217,0.0285,0,0,0,0,0,0,0.0183,0.0183,0.0185,0.0178,0.0177,0.0188,0.0168,0.0165,0.0164,0.0162,0.0163,0.0163,0.0159,0.0179,0.0181,0.0209,0.0167,0.0214,0.0215,0.0217,0.0282,0.0288,0.0294,0,0,0,0,0,0.0183,0.0194,0.0186,0.0185,0.0181,0.0189,0.0188,0.0178,0.0165,0.0174,0.0174,0.0163,0.0191,0.0181,0.0183,0.0211,0.0213,0.0215,0.0217,0.0279,0.0287,0.0294,0,0,0,0,0,0,0.0194,0.0193,0.0184,0.0193,0.0193,0.0186,0.0192,0.0182,0.0188,0.0188,0.0178,0.0179,0.0205,0.0197,0.0186,0.0229,0.0199,0.0201,0.0245,0.0253,0.0259,0.0298,0.0168,0,0,0,0,0,0.0197,0.0208,0.0202,0.0209,0.0212,0.0201,0.0202,0.0197,0.0199,0.02,0.0201,0.0204,0.0215,0.0224,0.023,0.0258,0.0269,0.0275,0.0281,0.0286,0.0319,0.0359,0.0373,0.0224,0.0224,0.0224,0,0,0.0201,0.0203,0.0207,0.0212,0.0211,0.0236,0.0201,0.0211,0.0238,0.0202,0.024,0.0227,0.0226,0.0256,0.0267,0.0254,0.033,0.0289,0.0294,0.0324,0.0363,0.0377,0.039,0.0225,0.0225,0.0225,0,0,0.0229,0.0219,0.0244,0.0252,0.0258,0.0258,0.0263,0.0264,0.0271,0.0298,0.028,0.0293,0.0302,0.0317,0.0323,0.037,0.0359,0.0355,0.0426,0.0464,0.0477,0.0489,0.0506,0.0519,0.0361,0.0362,0.0362,0,0.0234,0.0268,0.0251,0.0283,0.03,0.0274,0.0314,0.0321,0.0329,0.035,0.0321,0.0356,0.0343,0.0399,0.0407,0.0389,0.0397,0.0398,0.0475,0.0487,0.0498,0.0513,0.0527,0.0365,0.0365,0.0364,0.0364,0,0.0289,0.0316,0.0333,0.0368,0.0383,0.0411,0.042,0.044,0.0437,0.0443,0.0487,0.0472,0.0498,0.0483,0.046,0.0529,0.0504,0.0476,0.0461,0.0518,0.0529,0.0542,0.037,0.0369,0.0368,0.0367,0,0,0.0305,0.0363,0.037,0.0409,0.0434,0.0457,0.0506,0.0551,0.0597,0.0594,0.066,0.0658,0.064,0.0646,0.0615,0.0641,0.0703,0.0594,0.0594,0.0621,0.0777,0.0728,0.0737,0.0686,0.0689,0.0691,0.0748,0,0.0358,0.0442,0.0454,0.0536,0.0583,0.0586,0.064,0.0672,0.0689,0.0743,0.0736,0.0776,0.0705,0.0718,0.0735,0.0724,0.0743,0.069,0.0711,0.0712,0.0671,0.0753,0.0731,0.0778,0.076,0.0762,0.0764,0,0.0418,0.047,0.056,0.0642,0.0662,0.0704,0.0787,0.0832,0.0888,0.0902,0.0934,0.092,0.0969,0.0887,0.0923,0.089,0.0846,0.0821,0.0822,0.0772,0.0689,0.072,0.0801,0.0685,0.0783,0.0782,0.078,0,0.0461,0.0548,0.0627,0.0653,0.0734,0.078,0.0823,0.0882,0.094,0.1008,0.1058,0.1087,0.113,0.1097,0.1038,0.0989,0.1066,0.0991,0.0905,0.0899,0.0886,0.0875,0.0872,0.1015,0.1015,0.1015,0.1015,0,0.0526,0.0588,0.0654,0.0701,0.0803,0.0834,0.0937,0.0983,0.106,0.116,0.1144,0.1239,0.1187,0.1209,0.1116,0.1074,0.1133,0.0954,0.093,0.0903,0.0894,0.0793,0.0735,0.1017,0.1017,0.1016,0.1016,0,0.0569,0.061,0.0706,0.0797,0.0829,0.0901,0.1005,0.1085,0.1144,0.1279,0.1313,0.1386,0.1435,0.1356,0.133,0.1196,0.1077,0.1091,0.1053,0.1023,0.08,0.0747,0.0747,0.0715,0.1015,0.1015,0.1014,0,0.0604,0.0657,0.0769,0.0831,0.0875,0.0973,0.1053,0.1124,0.1209,0.1385,0.1467,0.1555,0.1659,0.1592,0.1391,0.1246,0.1111,0.1066,0.0964,0.0823,0.0747,0.0695,0.0664,0.0966,0.0965,0.0964,0.0964,0,0.0668,0.07,0.0777,0.0901,0.0991,0.1095,0.1206,0.1284,0.1401,0.1545,0.1751,0.186,0.1804,0.1685,0.144,0.1302,0.0986,0.1044,0.0932,0.0754,0.0671,0.0615,0.0872,0.0958,0.0958,0.0959,0.0959,0.0959,0.0708,0.0767,0.0862,0.0978,0.1082,0.1208,0.1303,0.1449,0.1628,0.1873,0.196,0.2173,0.1913,0.1611,0.1394,0.0935,0.097,0.0774,0.0736,0.0706,0.064,0.087,0.0898,0.0898,0.0899,0.0899,0.0899,0,0.0754,0.0823,0.0935,0.107,0.1181,0.123,0.1404,0.1529,0.1767,0.2044,0.2261,0.2251,0.1941,0.1555,0.0937,0.0662,0.0567,0.0523,0.0453,0.0447,0.0685,0.0644,0.0578,0.0578,0.0578,0.0578,0.0578,0.0579,0.0784,0.088,0.0935,0.1116,0.1215,0.1371,0.1472,0.1705,0.1923,0.2264,0.2409,0.2496,0.2152,0.1149,0.0516,0.0396,0.0247,0.0201,0.0159,0.03,0.032,0.0339,0.0285,0.0146,0.0145,-0.0071,-0.0073,-0.0075]}],[{"header":{"parameterUnit":"m.s-1","parameterCategory":2,"la1":30.2991,"la2":30.254,"lo1":-89.0895,"lo2":-89.0444,"dy":0.0017,"dx":0.0017,"nx":28,"ny":28,"refTime":"2025-06-23T03:00:00:Z","depth":"2","parameterNumber":2,"parameterNumberName":"U-component_of_CURRENTS"},"data":[0,0,0,0,0,0,0,0,0,0,0,0,0,0,0,0,0,0,0,0,0,0,0,0,0,0,0,0,0,0,0,0,0,0,0,0,0,0,0,0,0,0,0,0,0,0,0,0,0,0,0,0,0,0,0,0,0,0,0.2352,0.2352,0,0.2374,0.2374,0.2374,0.2366,0.2366,0.2366,0.2366,0.2383,0.2384,0.2384,0,0,0,0,0,0,0,0,0,0,0,0,0,0.2346,0.2346,0.2352,0.2352,0.2353,0.2374,0.2374,0.2374,0.2366,0.2366,0.2366,0.2365,0.2383,0.2384,0.2385,0,0,0,0,0,0,0,0,0,0,0,0,0,0.2354,0.2346,0.2352,0.2354,0.2354,0.2374,0.2374,0.2374,0.2366,0.2366,0.2366,0.2365,0.2383,0.2384,0.2385,0.2399,0,0,0.2388,0.2388,0,0,0,0,0,0,0,0,0.2353,0.2354,0.2353,0.2353,0.2354,0.2369,0.2379,0.2383,0.2366,0.2359,0.2366,0.2365,0.238,0.2381,0.2383,0.2399,0.24,0.2388,0.2389,0.2389,0.2389,0,0,0,0,0,0,0,0.2353,0.2353,0.2358,0.2353,0.2354,0.2369,0.2368,0.238,0.2369,0.2359,0.236,0.2367,0.238,0.2382,0.2383,0.24,0.2388,0.2389,0.2389,0.239,0.2493,0.2495,0,0,0,0,0,0,0.2354,0.2352,0.2357,0.2359,0.2356,0.2369,0.2369,0.2363,0.2369,0.2371,0.2367,0.2366,0.238,0.2382,0.2384,0.2448,0.2389,0.239,0.2391,0.2491,0.2493,0.2495,0,0,0,0,0,0,0.2353,0.2353,0.2356,0.2359,0.2361,0.2369,0.2363,0.2363,0.2371,0.2375,0.2376,0.2374,0.238,0.2382,0.241,0.2446,0.239,0.2391,0.2488,0.2491,0.2494,0.2546,0,0,0,0,0,0,0.2353,0.2353,0.2355,0.2359,0.2361,0.2377,0.2363,0.2364,0.2376,0.2376,0.2382,0.2383,0.238,0.2408,0.2411,0.2447,0.2392,0.2485,0.249,0.2493,0.2541,0.255,0.2558,0,0,0,0,0,0.2352,0.2358,0.2355,0.2356,0.2361,0.2378,0.2381,0.2384,0.2377,0.2387,0.2396,0.2383,0.2436,0.2411,0.2413,0.245,0.2484,0.2488,0.2493,0.2538,0.2549,0.2558,0,0,0,0,0,0,0.2359,0.2358,0.2354,0.2359,0.2372,0.2378,0.2392,0.239,0.2403,0.2407,0.2401,0.2404,0.2443,0.2443,0.2416,0.2495,0.2461,0.2467,0.2494,0.2505,0.2513,0.2533,0.2393,0,0,0,0,0,0.2362,0.2363,0.2368,0.2375,0.2383,0.2388,0.2397,0.2401,0.2412,0.2417,0.2426,0.2443,0.2465,0.248,0.2495,0.2535,0.2564,0.2565,0.2574,0.258,0.2601,0.2685,0.2703,0.2511,0.2511,0.2511,0,0,0.2367,0.2368,0.2369,0.2377,0.2387,0.2406,0.2392,0.2414,0.2436,0.2418,0.2457,0.2467,0.248,0.2525,0.2545,0.253,0.2649,0.2586,0.2592,0.261,0.2692,0.2711,0.2727,0.2514,0.2514,0.2513,0,0,0.2385,0.238,0.2391,0.2403,0.2424,0.2429,0.2437,0.2454,0.2469,0.2506,0.2503,0.254,0.2569,0.2593,0.2605,0.2672,0.2685,0.2679,0.2742,0.2823,0.284,0.2854,0.2908,0.2928,0.2689,0.2689,0.2689,0,0.2397,0.24,0.24,0.242,0.2436,0.244,0.2464,0.2483,0.2511,0.2544,0.2529,0.2608,0.2606,0.2675,0.2697,0.2691,0.2734,0.2697,0.2834,0.285,0.2864,0.2916,0.2936,0.2692,0.2692,0.2691,0.2691,0,0.242,0.2429,0.2442,0.2461,0.2483,0.2503,0.2529,0.2566,0.2585,0.2611,0.2687,0.2698,0.2752,0.2757,0.2744,0.285,0.2846,0.2828,0.2806,0.2887,0.2935,0.2956,0.2696,0.2695,0.2694,0.2693,0,0,0.2423,0.245,0.2455,0.2468,0.2504,0.2521,0.2581,0.2637,0.2686,0.2732,0.2806,0.2848,0.2869,0.2886,0.2885,0.2951,0.3071,0.2941,0.2944,0.299,0.325,0.3071,0.3076,0.3086,0.309,0.3094,0.324,0,0.244,0.2472,0.2489,0.2527,0.2544,0.2583,0.2638,0.2699,0.2747,0.2823,0.2874,0.2934,0.2913,0.2943,0.3012,0.305,0.3131,0.3033,0.317,0.3174,0.3002,0.3095,0.2819,0.2911,0.326,0.3264,0.3266,0,0.2451,0.2471,0.2508,0.2558,0.2573,0.2608,0.2701,0.2752,0.2865,0.2912,0.3002,0.3033,0.3133,0.3097,0.3248,0.3192,0.3241,0.327,0.3277,0.3108,0.3033,0.289,0.2935,0.3301,0.3298,0.3295,0.3293,0,0.2433,0.2481,0.2506,0.2521,0.2587,0.2634,0.2683,0.279,0.2849,0.2977,0.3045,0.3153,0.3219,0.331,0.3351,0.3329,0.3504,0.3475,0.3371,0.3358,0.3147,0.3107,0.3616,0.3616,0.3616,0.3615,0.3615,0,0.243,0.2449,0.2502,0.2512,0.2569,0.263,0.2714,0.2785,0.2905,0.2984,0.309,0.3166,0.3284,0.3376,0.3412,0.3439,0.3562,0.3407,0.3395,0.3152,0.3113,0.3465,0.3446,0.3621,0.3619,0.3618,0.3617,0,0.24,0.2431,0.2457,0.2527,0.2555,0.26,0.2712,0.2774,0.2903,0.3013,0.3062,0.3219,0.3321,0.3403,0.3536,0.3497,0.3542,0.3527,0.321,0.3156,0.3336,0.3318,0.3448,0.3443,0.3439,0.3435,0.3433,0,0.2382,0.2392,0.2448,0.247,0.2501,0.2579,0.2633,0.2757,0.2803,0.3023,0.3052,0.3218,0.3271,0.3381,0.3341,0.3367,0.348,0.3122,0.3013,0.3349,0.3326,0.3314,0.3302,0.2772,0.2764,0.2758,0.2752,0,0.2345,0.2364,0.2384,0.242,0.2466,0.2509,0.2578,0.2617,0.2765,0.2873,0.2981,0.3059,0.3148,0.3019,0.3033,0.301,0.308,0.2983,0.347,0.282,0.2713,0.2689,0.27,0.2693,0.2699,0.2704,0.2707,0.2709,0.2312,0.2313,0.2332,0.2362,0.2394,0.2395,0.2403,0.2461,0.2524,0.2617,0.2775,0.2804,0.2826,0.2682,0.2591,0.2515,0.274,0.2625,0.2647,0.2675,0.2534,0.2421,0.2321,0.2324,0.2327,0.233,0.2333,0,0.2264,0.2268,0.2277,0.2274,0.2227,0.2299,0.2326,0.2284,0.2287,0.2397,0.2455,0.2265,0.2181,0.2216,0.2,0.1969,0.1967,0.1889,0.188,0.1939,0.1992,0.1816,0.1413,0.141,0.1408,0.1405,0,0,0.2239,0.2214,0.2203,0.2091,0.2087,0.2008,0.2,0.1962,0.1977,0.1942,0.1947,0.2115,0.2173,0.1794,0.1713,0.1532,0.1732,0.1461,0.2201,0.2253,0.2303,0.2417,0.2211,0,0,0,0,0]},{"header":{"parameterUnit":"m.s-1","parameterCategory":2,"la1":30.2991,"la2":30.254,"lo1":-89.0895,"lo2":-89.0444,"dy":0.0017,"dx":0.0017,"nx":28,"ny":28,"refTime":"2025-06-23T03:00:00:Z","depth":"2","parameterNumber":3,"parameterNumberName":"V-component_of_CURRENTS"},"data":[0,0,0,0,0,0,0,0,0,0,0,0,0,0,0,0,0,0,0,0,0,0,0,0,0,0,0,0,0,0,0,0,0,0,0,0,0,0,0,0,0,0,0,0,0,0,0,0,0,0,0,0,0,0,0,0,0,0,0.0112,0.0112,0,0.0107,0.0107,0.0107,0.0095,0.0095,0.0094,0.0094,0.011,0.0111,0.0112,0,0,0,0,0,0,0,0,0,0,0,0,0,0.0103,0.0103,0.0112,0.0112,0.0112,0.0107,0.0107,0.0107,0.0095,0.0094,0.0094,0.0094,0.011,0.0111,0.0112,0,0,0,0,0,0,0,0,0,0,0,0,0,0.0104,0.0103,0.0112,0.0105,0.0104,0.0107,0.0107,0.0107,0.0095,0.0094,0.0094,0.0094,0.011,0.0111,0.0112,0.0129,0,0,0.0116,0.0116,0,0,0,0,0,0,0,0,0.0104,0.0105,0.0106,0.0105,0.0104,0.01,0.0109,0.0115,0.0095,0.0099,0.0094,0.0093,0.0109,0.011,0.0111,0.013,0.0131,0.0116,0.0116,0.0117,0.0117,0,0,0,0,0,0,0,0.0104,0.0105,0.0111,0.0106,0.0105,0.0098,0.0098,0.011,0.0108,0.0099,0.0098,0.0096,0.0108,0.011,0.0111,0.0131,0.0116,0.0117,0.0117,0.0118,0.0155,0.0155,0,0,0,0,0,0,0.0104,0.0105,0.0111,0.0111,0.0102,0.0099,0.0098,0.0103,0.0108,0.0107,0.0096,0.0095,0.0108,0.011,0.0112,0.0144,0.0117,0.0118,0.0119,0.0154,0.0155,0.0155,0,0,0,0,0,0,0.0104,0.0105,0.0111,0.0106,0.0107,0.0099,0.0104,0.0103,0.0105,0.0105,0.0105,0.01,0.0108,0.011,0.0128,0.0144,0.0118,0.0119,0.0154,0.0154,0.0155,0.0201,0,0,0,0,0,0,0.0104,0.0105,0.0108,0.0107,0.0107,0.0121,0.0104,0.0103,0.0104,0.0103,0.0108,0.0109,0.0108,0.0127,0.013,0.0145,0.012,0.0154,0.0154,0.0155,0.0199,0.0203,0.0206,0,0,0,0,0,0.0104,0.0115,0.0109,0.0109,0.0112,0.0121,0.0121,0.0114,0.0105,0.0113,0.0115,0.0109,0.0132,0.0129,0.0132,0.0148,0.0153,0.0154,0.0155,0.0197,0.0202,0.0206,0,0,0,0,0,0,0.0109,0.0114,0.0108,0.0118,0.0121,0.0119,0.0125,0.0118,0.0125,0.0125,0.0121,0.0122,0.0141,0.0137,0.0133,0.0157,0.0139,0.014,0.017,0.0174,0.0178,0.0188,0.0121,0,0,0,0,0,0.0112,0.0124,0.0123,0.0131,0.0135,0.013,0.0131,0.0129,0.0133,0.0135,0.0138,0.0139,0.0146,0.0154,0.0159,0.018,0.0173,0.0188,0.0192,0.0195,0.0204,0.0206,0.0211,0.0157,0.0157,0.0157,0,0,0.0114,0.0119,0.0124,0.0133,0.0135,0.0154,0.013,0.014,0.016,0.0138,0.0166,0.0155,0.0153,0.0174,0.0181,0.0174,0.0205,0.0196,0.0199,0.0206,0.0207,0.0213,0.0218,0.0158,0.0158,0.0157,0,0,0.0135,0.0132,0.0153,0.0161,0.0169,0.0171,0.0175,0.0179,0.0185,0.0207,0.0191,0.0191,0.0207,0.0207,0.021,0.0236,0.0222,0.0231,0.0265,0.0267,0.0272,0.0276,0.0269,0.0272,0.0236,0.0236,0.0236,0,0.0137,0.0166,0.0159,0.0184,0.0199,0.0182,0.0213,0.0219,0.0228,0.024,0.0223,0.0236,0.0226,0.0253,0.0252,0.0247,0.024,0.0252,0.0273,0.0277,0.028,0.0272,0.0275,0.0238,0.0238,0.0238,0.0238,0,0.0178,0.02,0.0214,0.0244,0.0258,0.028,0.0289,0.0304,0.0303,0.0304,0.0325,0.0308,0.0315,0.0304,0.0286,0.0306,0.029,0.0276,0.0265,0.0289,0.0278,0.028,0.0242,0.0241,0.024,0.024,0,0,0.0188,0.0235,0.0241,0.0273,0.0294,0.0317,0.035,0.038,0.0412,0.0401,0.0439,0.042,0.0397,0.0396,0.037,0.0361,0.0365,0.0328,0.0327,0.0327,0.0364,0.0313,0.031,0.0356,0.0357,0.0357,0.0346,0,0.0224,0.0291,0.0301,0.0366,0.0405,0.0408,0.0447,0.0468,0.0478,0.0509,0.0482,0.0505,0.0439,0.0446,0.0423,0.0388,0.0374,0.037,0.0336,0.0335,0.0292,0.0312,0.0331,0.0318,0.0348,0.0348,0.0348,0,0.0266,0.031,0.0381,0.0449,0.0466,0.0497,0.0561,0.0595,0.062,0.0629,0.0627,0.0607,0.0594,0.0537,0.0483,0.0483,0.0426,0.0386,0.0385,0.0325,0.0288,0.03,0.0321,0.0351,0.0351,0.0351,0.0351,0,0.0298,0.0368,0.0432,0.0453,0.0521,0.0555,0.0591,0.0629,0.0682,0.0709,0.075,0.071,0.0723,0.0642,0.0539,0.052,0.0475,0.0445,0.0344,0.034,0.0344,0.0338,0.0409,0.0409,0.0409,0.0409,0.0409,0,0.0343,0.0394,0.0454,0.0491,0.0578,0.0604,0.0694,0.072,0.078,0.0865,0.0817,0.0874,0.0751,0.0706,0.0586,0.0471,0.0513,0.0356,0.0337,0.0357,0.0353,0.0371,0.0367,0.0408,0.0408,0.0408,0.0409,0,0.0374,0.0408,0.049,0.0567,0.0597,0.0662,0.077,0.0843,0.0883,0.0996,0.1018,0.1011,0.095,0.0807,0.0687,0.0554,0.0436,0.0383,0.0404,0.0386,0.0287,0.0285,0.028,0.0278,0.0276,0.0275,0.0274,0,0.0398,0.0442,0.0544,0.0604,0.0643,0.0741,0.0823,0.089,0.0981,0.1092,0.1163,0.1135,0.1131,0.0913,0.0679,0.0462,0.0434,0.0328,0.0284,0.0294,0.0276,0.0277,0.0277,0.0311,0.031,0.0309,0.0309,0,0.0447,0.0478,0.0548,0.0669,0.0762,0.088,0.0998,0.1088,0.1194,0.1289,0.1399,0.1398,0.1191,0.0972,0.0651,0.0501,0.0355,0.0307,0.0342,0.0327,0.0318,0.0302,0.0302,0.0304,0.0304,0.0305,0.0305,0.0305,0.0483,0.0539,0.063,0.0746,0.0859,0.1011,0.1128,0.1257,0.1413,0.1558,0.1544,0.1531,0.1275,0.0854,0.0595,0.0313,0.0326,0.0222,0.0227,0.0231,0.0223,0.0211,0.0175,0.0175,0.0175,0.0175,0.0175,0,0.0535,0.0601,0.0706,0.0857,0.0989,0.1041,0.1247,0.1367,0.1558,0.1638,0.1698,0.1435,0.1185,0.0886,0.0468,0.0219,0.0213,0.0137,0.0192,0.0199,0.0204,0.0197,0.0141,0.014,0.0139,0.0138,0,0,0.0566,0.0666,0.072,0.0935,0.105,0.125,0.1374,0.1537,0.1632,0.1706,0.1676,0.1608,0.1253,0.0939,0.0612,0.038,0.0345,0.0329,0.0383,0.0495,0.0504,0.028,0.0278,0,0,0,0,0]}],[{"header":{"parameterUnit":"m.s-1","parameterCategory":2,"la1":30.2991,"la2":30.254,"lo1":-89.0895,"lo2":-89.0444,"dy":0.0017,"dx":0.0017,"nx":28,"ny":28,"refTime":"2025-06-23T03:00:00:Z","depth":"4","parameterNumber":2,"parameterNumberName":"U-component_of_CURRENTS"},"data":[0,0,0,0,0,0,0,0,0,0,0,0,0,0,0,0,0,0,0,0,0,0,0,0,0,0,0,0,0,0,0,0,0,0,0,0,0,0,0,0,0,0,0,0,0,0,0,0,0,0,0,0,0,0,0,0,0,0,0.1524,0.1525,0,0.1551,0.1551,0.1551,0.158,0.1581,0.1582,0.1583,0.1582,0.1581,0.158,0,0,0,0,0,0,0,0,0,0,0,0,0,0.1474,0.1474,0.1524,0.1525,0.1526,0.1551,0.1551,0.1551,0.158,0.1581,0.1582,0.1583,0.1582,0.1581,0.158,0,0,0,0,0,0,0,0,0,0,0,0,0,0.1493,0.1474,0.1524,0.1547,0.1549,0.1551,0.1551,0.1551,0.158,0.1581,0.1582,0.1583,0.1582,0.1581,0.158,0.1548,0,0,0.1576,0.1576,0,0,0,0,0,0,0,0,0.1492,0.1494,0.1543,0.1545,0.1548,0.1568,0.1533,0.155,0.1579,0.1563,0.1583,0.1584,0.1577,0.1576,0.1572,0.1548,0.1548,0.1576,0.1576,0.1575,0.1575,0,0,0,0,0,0,0,0.1491,0.1493,0.153,0.1543,0.1547,0.1547,0.1551,0.1536,0.1558,0.1565,0.1568,0.1578,0.1577,0.1573,0.1572,0.1548,0.1576,0.1575,0.1575,0.1574,0.1621,0.1623,0,0,0,0,0,0,0.1497,0.1492,0.153,0.1532,0.1528,0.1548,0.1552,0.1556,0.1559,0.1563,0.1577,0.1579,0.1575,0.1574,0.1572,0.162,0.1575,0.1574,0.1573,0.1619,0.1621,0.1623,0,0,0,0,0,0,0.1495,0.1499,0.1529,0.1516,0.1521,0.1548,0.1552,0.1556,0.1587,0.157,0.1572,0.1608,0.1576,0.1574,0.1596,0.1617,0.1573,0.1572,0.1617,0.162,0.1622,0.166,0,0,0,0,0,0,0.1493,0.1498,0.1516,0.1517,0.1522,0.1552,0.1552,0.1556,0.1591,0.1595,0.1596,0.1596,0.1576,0.1598,0.1595,0.1615,0.1571,0.1614,0.1618,0.1621,0.1657,0.1664,0.1671,0,0,0,0,0,0.1491,0.1504,0.1517,0.1522,0.1541,0.1553,0.1555,0.1575,0.1592,0.1607,0.1618,0.1598,0.162,0.1598,0.1594,0.1614,0.1612,0.1617,0.1621,0.1654,0.1663,0.1671,0,0,0,0,0,0,0.1492,0.1509,0.1522,0.1542,0.156,0.156,0.1582,0.1594,0.1613,0.1628,0.1611,0.1611,0.1642,0.1629,0.1606,0.1644,0.1617,0.1621,0.1643,0.1652,0.1658,0.1672,0.157,0,0,0,0,0,0.1501,0.1518,0.1532,0.1552,0.1565,0.158,0.1595,0.1609,0.1621,0.1633,0.1635,0.1644,0.165,0.1653,0.1656,0.1665,0.1675,0.1682,0.169,0.1695,0.1708,0.175,0.1761,0.1638,0.1638,0.1638,0,0,0.1508,0.1521,0.1533,0.1555,0.1572,0.1585,0.1592,0.1624,0.1642,0.1627,0.1662,0.1669,0.1662,0.168,0.1693,0.1674,0.1736,0.1701,0.1705,0.1715,0.1756,0.1767,0.1778,0.1641,0.164,0.164,0,0,0.1519,0.1544,0.156,0.1576,0.161,0.1615,0.1633,0.1655,0.1678,0.1707,0.1707,0.1734,0.1739,0.1737,0.1735,0.1784,0.1776,0.1792,0.1828,0.1869,0.1879,0.1888,0.1912,0.1923,0.179,0.179,0.179,0,0.1534,0.1546,0.1568,0.1585,0.1602,0.1632,0.1648,0.1669,0.1698,0.1718,0.1731,0.1772,0.1764,0.1784,0.1806,0.1797,0.1821,0.1789,0.1877,0.1886,0.1894,0.1917,0.1928,0.1792,0.1792,0.1792,0.1791,0,0.1542,0.1565,0.1578,0.1605,0.1627,0.1648,0.1677,0.1711,0.1747,0.1765,0.182,0.1827,0.1852,0.1856,0.1843,0.1899,0.1896,0.1882,0.1849,0.1909,0.1929,0.194,0.1796,0.1795,0.1794,0.1793,0,0,0.1533,0.1575,0.1583,0.1596,0.1639,0.165,0.1696,0.1732,0.1765,0.1817,0.1863,0.189,0.1917,0.192,0.1919,0.1953,0.2026,0.1951,0.1952,0.1966,0.2119,0.1962,0.1959,0.2034,0.2036,0.2038,0.2107,0,0.1534,0.156,0.1585,0.1612,0.1623,0.1668,0.17,0.1745,0.1791,0.1844,0.1889,0.1932,0.1933,0.1959,0.1998,0.2028,0.206,0.2009,0.2069,0.207,0.1915,0.1968,0.2046,0.2115,0.2117,0.2119,0.2121,0,0.1523,0.1541,0.1569,0.1607,0.162,0.1649,0.1708,0.1745,0.1824,0.1867,0.1936,0.1973,0.2047,0.2037,0.2132,0.2107,0.2123,0.2138,0.2141,0.1989,0.1934,0.2046,0.2141,0.2139,0.2138,0.2136,0.2135,0,0.1478,0.1524,0.1545,0.1559,0.1612,0.1649,0.1688,0.1759,0.1802,0.1899,0.195,0.2032,0.2098,0.215,0.2196,0.218,0.229,0.2261,0.213,0.2119,0.2222,0.2212,0.2319,0.2319,0.2319,0.2319,0.2319,0,0.144,0.1458,0.1534,0.154,0.1572,0.1631,0.168,0.1734,0.183,0.1876,0.1971,0.2025,0.2138,0.2207,0.2228,0.2218,0.2319,0.2148,0.213,0.2236,0.2227,0.223,0.2218,0.2321,0.2321,0.232,0.232,0,0.1374,0.1424,0.1451,0.1524,0.155,0.1579,0.1673,0.1695,0.1814,0.1887,0.193,0.2064,0.2148,0.2224,0.2307,0.2243,0.225,0.2212,0.233,0.2316,0.2044,0.2035,0.2073,0.2069,0.2064,0.2061,0.2058,0,0.1334,0.1346,0.143,0.1442,0.148,0.1535,0.1555,0.1672,0.1704,0.1883,0.1903,0.2044,0.2108,0.2119,0.2199,0.2218,0.2185,0.2162,0.2092,0.2042,0.2022,0.2019,0.2015,0.2051,0.205,0.2049,0.2048,0,0.1256,0.1309,0.1332,0.1366,0.1396,0.1408,0.1466,0.149,0.162,0.1754,0.1835,0.1887,0.1973,0.2033,0.206,0.2067,0.2164,0.2118,0.2126,0.206,0.2016,0.1999,0.2,0.2034,0.2036,0.2037,0.2038,0,0.1206,0.1205,0.1253,0.1265,0.1292,0.1268,0.1314,0.136,0.1425,0.1637,0.1661,0.1817,0.1959,0.1954,0.1983,0.1976,0.1937,0.1853,0.1873,0.189,0.1794,0.1709,0.1625,0,0,0,0,0,0.1145,0.1129,0.1136,0.113,0.1149,0.1165,0.1235,0.129,0.1437,0.1448,0.1558,0.163,0.1696,0.1779,0.1734,0.1873,0.1925,0.1808,0.1833,0.1954,0.197,0.1871,0,0,0,0,0,0,0.1101,0.1111,0.1101,0.1015,0.0984,0.0982,0.1023,0.112,0.1142,0.132,0.1375,0.1508,0.1603,0.171,0.1699,0.1718,0.1691,0.1907,0.1901,0.1944,0.196,0.1973,0.1877,0,0,0,0,0]},{"header":{"parameterUnit":"m.s-1","parameterCategory":2,"la1":30.2991,"la2":30.254,"lo1":-89.0895,"lo2":-89.0444,"dy":0.0017,"dx":0.0017,"nx":28,"ny":28,"refTime":"2025-06-23T03:00:00:Z","depth":"4","parameterNumber":3,"parameterNumberName":"V-component_of_CURRENTS"},"data":[0,0,0,0,0,0,0,0,0,0,0,0,0,0,0,0,0,0,0,0,0,0,0,0,0,0,0,0,0,0,0,0,0,0,0,0,0,0,0,0,0,0,0,0,0,0,0,0,0,0,0,0,0,0,0,0,0,0,0.01,0.01,0,0.0106,0.0106,0.0106,0.0104,0.0104,0.0104,0.0103,0.0131,0.0132,0.0133,0,0,0,0,0,0,0,0,0,0,0,0,0,0.0085,0.0085,0.01,0.01,0.01,0.0106,0.0106,0.0106,0.0104,0.0104,0.0104,0.0103,0.013,0.0132,0.0133,0,0,0,0,0,0,0,0,0,0,0,0,0,0.0092,0.0085,0.01,0.0098,0.0098,0.0106,0.0106,0.0106,0.0104,0.0104,0.0103,0.0103,0.013,0.0131,0.0133,0.0149,0,0,0.0137,0.0138,0,0,0,0,0,0,0,0,0.0092,0.0093,0.0099,0.0099,0.0098,0.0103,0.011,0.0121,0.0104,0.0103,0.0103,0.0103,0.0123,0.0125,0.0128,0.015,0.0151,0.0137,0.0138,0.0139,0.0139,0,0,0,0,0,0,0,0.0091,0.0093,0.0103,0.0099,0.0098,0.0097,0.0098,0.0112,0.0116,0.0103,0.0103,0.0102,0.0123,0.0127,0.0129,0.0152,0.0137,0.0139,0.0139,0.014,0.018,0.018,0,0,0,0,0,0,0.0089,0.0092,0.0103,0.0103,0.0093,0.0097,0.0098,0.0103,0.0116,0.0117,0.0102,0.0102,0.0125,0.0127,0.013,0.0158,0.0139,0.014,0.0141,0.0179,0.018,0.018,0,0,0,0,0,0,0.0088,0.009,0.0103,0.0096,0.0098,0.0098,0.0103,0.0103,0.0108,0.0114,0.0116,0.0107,0.0124,0.0128,0.0148,0.0159,0.0141,0.0142,0.0179,0.018,0.018,0.021,0,0,0,0,0,0,0.0088,0.009,0.0093,0.0097,0.0098,0.0113,0.0103,0.0103,0.0107,0.0107,0.0119,0.0121,0.0124,0.0146,0.015,0.0161,0.0143,0.0179,0.0179,0.018,0.0209,0.0211,0.0214,0,0,0,0,0,0.0088,0.0097,0.0094,0.0095,0.0103,0.0113,0.0114,0.0113,0.0108,0.0116,0.0123,0.0121,0.0151,0.0148,0.0152,0.0164,0.0179,0.0179,0.018,0.0208,0.0211,0.0214,0,0,0,0,0,0,0.0091,0.0098,0.0094,0.0104,0.0109,0.0112,0.0119,0.0117,0.0128,0.013,0.0132,0.0135,0.0154,0.0154,0.0151,0.0174,0.0161,0.0162,0.0181,0.0184,0.0186,0.0188,0.0144,0,0,0,0,0,0.0093,0.0103,0.0106,0.0114,0.0118,0.0118,0.0122,0.0123,0.0131,0.0135,0.0143,0.015,0.0159,0.0168,0.0176,0.0196,0.0176,0.0202,0.0204,0.0207,0.0209,0.0187,0.0188,0.0181,0.0181,0.0181,0,0,0.0095,0.01,0.0105,0.0115,0.0119,0.0135,0.0121,0.0131,0.0148,0.0138,0.0165,0.0162,0.0165,0.0185,0.0192,0.0188,0.0195,0.0207,0.0209,0.021,0.0188,0.0189,0.0189,0.0182,0.0182,0.0182,0,0,0.0109,0.0111,0.0126,0.0135,0.0144,0.0148,0.0152,0.016,0.0167,0.019,0.0182,0.0185,0.0207,0.0207,0.0211,0.0231,0.0207,0.023,0.0249,0.0228,0.0229,0.0229,0.0194,0.0191,0.0234,0.0234,0.0234,0,0.011,0.0133,0.0131,0.015,0.0164,0.0156,0.018,0.0188,0.0202,0.0212,0.0203,0.0219,0.0218,0.0235,0.0237,0.0238,0.0215,0.0241,0.0232,0.0231,0.0231,0.0196,0.0192,0.0235,0.0235,0.0235,0.0235,0,0.0139,0.0158,0.0169,0.0193,0.0206,0.0226,0.0236,0.025,0.0254,0.0257,0.0273,0.0265,0.0273,0.0268,0.0261,0.026,0.024,0.0236,0.0225,0.0233,0.0195,0.0191,0.0237,0.0237,0.0236,0.0236,0,0,0.0144,0.0182,0.0187,0.0213,0.0234,0.0253,0.028,0.0304,0.0327,0.0322,0.0345,0.034,0.0322,0.0323,0.0307,0.0285,0.0255,0.0259,0.0257,0.0226,0.0195,0.0179,0.0172,0.0247,0.0247,0.0247,0.0166,0,0.0169,0.0219,0.023,0.0282,0.0312,0.032,0.035,0.0368,0.0376,0.0394,0.0372,0.0386,0.0348,0.0352,0.0322,0.0279,0.0245,0.0276,0.019,0.0188,0.0174,0.0168,0.0246,0.0162,0.0161,0.0161,0.016,0,0.0197,0.0232,0.0287,0.0343,0.0357,0.0385,0.0436,0.0463,0.0475,0.048,0.0471,0.0449,0.0421,0.0388,0.0303,0.0324,0.0259,0.0214,0.021,0.0183,0.0164,0.0154,0.0151,0.0152,0.0153,0.0153,0.0154,0,0.0217,0.0274,0.0325,0.0343,0.0399,0.0429,0.0462,0.0489,0.053,0.0533,0.055,0.0503,0.0496,0.0408,0.0305,0.0305,0.0201,0.0194,0.0113,0.011,0.0135,0.0136,0.0124,0.0124,0.0124,0.0125,0.0125,0,0.0246,0.0287,0.0341,0.0371,0.0443,0.0468,0.0541,0.056,0.0599,0.0646,0.0597,0.0609,0.0501,0.0428,0.032,0.0199,0.0209,0.0111,0.0091,0.0148,0.0151,0.0131,0.0133,0.0122,0.0122,0.0123,0.0123,0,0.0263,0.0293,0.0359,0.0427,0.0456,0.051,0.0605,0.0656,0.0678,0.0735,0.074,0.0695,0.0596,0.0467,0.0326,0.0234,0.0112,0.0063,0.0124,0.0109,0.0028,0.0032,-0.003,-0.0031,-0.0032,-0.0033,-0.0033,0,0.0276,0.0311,0.0401,0.045,0.0486,0.0572,0.0637,0.0695,0.0753,0.0785,0.0813,0.0739,0.0683,0.0473,0.0327,0.0114,0.0083,0.0013,0.0023,0.0027,0.0013,0.0019,0.0024,-0.0035,-0.0035,-0.0035,-0.0036,0,0.0305,0.0334,0.039,0.049,0.0567,0.0665,0.0757,0.0807,0.087,0.0882,0.0874,0.0765,0.0652,0.048,0.0312,0.0159,0.0057,0.0002,0.0003,0.0012,0.002,0.0008,0.0015,-0.0039,-0.0039,-0.0038,-0.0038,0,0.0325,0.0367,0.0439,0.0531,0.0626,0.0729,0.0782,0.0852,0.0911,0.0936,0.0926,0.0796,0.0727,0.0503,0.0348,0.0195,0.0157,0.0106,0.0101,0.0103,0.0162,0.0192,0.0167,0,0,0,0,0,0.0347,0.0397,0.0478,0.0581,0.0676,0.0741,0.0851,0.0898,0.0949,0.095,0.0944,0.0833,0.0613,0.0523,0.0368,0.0319,0.0123,0.013,0.0059,-0.0058,-0.0054,-0.0009,0,0,0,0,0,0,0.0363,0.0435,0.0477,0.0605,0.0681,0.0801,0.0876,0.0917,0.0926,0.0939,0.0829,0.0777,0.0567,0.0693,0.0356,0.0312,0.0242,0.003,0.0027,-0.0061,-0.0057,-0.0054,-0.0005,0,0,0,0,0]}]]